This demonstration page uses our WeatherBlox Daily Observations layout. Learn more.

38.89511, -77.03637

Hourly Observations for July 1, 2017

Temp ( °F °C ) Dew Point ( °F °C ) Humidity (%) Winds ( mph kmh ) Pressure ( in mb ) Visibility ( mi km ) Precip ( " mm )
12:52 am 00:52 Mostly Cloudy 81 27.2 71 21.7 72 72 SSW 15 24 29.97 1015 10 16.09344 0 0
1:28 am 01:28 Cloudy 80 26.7 71 21.7 74 74 SSW 10 17 29.97 1015 10 16.09344 0 0
1:52 am 01:52 Cloudy 80 26.7 71 21.7 74 74 SSW 14 22 29.97 1015 10 16.09344 0 0
2:52 am 02:52 Cloudy 79 26.1 71 21.7 77 77 S 15 24 29.94 1014 10 16.09344 0 0
3:52 am 03:52 Mostly Cloudy 77 25 70 21.1 79 79 S 14 22 29.91 1013 10 16.09344 0 0
4:11 am 04:11 Mostly Cloudy 77 25 70 21.1 79 79 S 13 20 29.94 1014 10 16.09344 0 0
4:52 am 04:52 Mostly Cloudy 78 25.6 71 21.7 79 79 S 10 17 29.91 1013 10 16.09344 0 0
5:52 am 05:52 Mostly Cloudy 77 25 72 22.2 85 85 S 12 19 29.91 1013 10 16.09344 0 0
5:59 am 05:59 Cloudy 77 25 72 22.2 85 85 S 10 17 29.94 1014 10 16.09344 0 0
6:14 am 06:14 Mostly Cloudy 77 25 72 22.2 85 85 S 13 20 29.94 1014 10 16.09344 0 0
6:25 am 06:25 Mostly Cloudy 77 25 72 22.2 85 85 S 13 20 29.94 1014 10 16.09344 0 0
6:32 am 06:32 Mostly Cloudy 77 25 72 22.2 85 85 S 13 20 29.94 1014 10 16.09344 0 0
6:52 am 06:52 Mostly Cloudy 78 25.6 72 22.2 82 82 SSW 12 19 29.94 1014 10 16.09344 0 0
7:52 am 07:52 Cloudy 78 25.6 73 22.8 85 85 SSW 12 19 29.94 1014 10 16.09344 0 0
8:52 am 08:52 Cloudy 80 26.7 73 22.8 79 79 SSW 15 24 29.94 1014 10 16.09344 0 0
9:52 am 09:52 Cloudy 82 27.8 73 22.8 74 74 SSW 15 24 29.91 1013 10 16.09344 0 0
10:52 am 10:52 Cloudy 83 28.3 73 22.8 72 72 SSW 14 22 29.91 1013 10 16.09344 0 0
11:02 am 11:02 Cloudy 84 28.9 73 22.8 70 70 S 13 20 29.94 1014 10 16.09344 0 0
11:05 am 11:05 Cloudy 84 28.9 73 22.8 70 70 S 12 19 29.94 1014 10 16.09344 0 0
11:26 am 11:26 Mostly Cloudy 85 29.4 73 22.8 68 68 SSW 8 13 29.94 1014 10 16.09344 0 0
11:52 am 11:52 Mostly Cloudy 87 30.6 73 22.8 63 63 S 10 17 29.91 1013 10 16.09344 0 0
12:52 pm 12:52 Mostly Cloudy 87 30.6 74 23.3 65 65 S 15 24 29.91 1013 10 16.09344 0 0
1:52 pm 13:52 Mostly Cloudy 89 31.7 74 23.3 61 61 S 16 26 29.88 1012 10 16.09344 0 0
2:52 pm 14:52 Partly Cloudy 91 32.8 74 23.3 57 57 S 15 24 29.85 1011 10 16.09344 0 0
3:23 pm 15:23 Mostly Cloudy 93 33.9 74 23.3 54 54 S 17 28 29.85 1011 10 16.09344 0 0
3:35 pm 15:35 Mostly Cloudy with Thunderstorms 90 32.2 74 23.3 59 59 S 17 28 29.85 1011 10 16.09344 0 0
3:52 pm 15:52 Mostly Cloudy with Thunderstorms 85 29.4 71 21.7 63 63 NW 17 28 29.88 1012 10 16.09344 0 0
4:00 pm 16:00 Mostly Cloudy with Heavy Thunderstorms 81 27.2 71 21.7 72 72 WNW 26 43 29.91 1013 1.25 2.01168 0.001 0.001
4:03 pm 16:03 Cloudy with Heavy Thunderstorms 78 25.6 73 22.8 85 85 WNW 24 39 29.94 1014 0.5 0.804672 0.03 0.762
4:06 pm 16:06 Cloudy with Heavy Thunderstorms 75 23.9 72 22.2 90 90 NNW 21 33 29.91 1013 0.75 1.207008 0.21 5.334
4:11 pm 16:11 Mostly Cloudy with Heavy Thunderstorms 73 22.8 70 21.1 90 90 N 3 6 29.91 1013 1.5 2.414016 0.43 10.922
4:16 pm 16:16 Mostly Cloudy with Light Thunderstorms 75 23.9 70 21.1 84 84 SW 13 20 29.91 1013 7 11.265408 0.6 15.24
4:28 pm 16:28 Mostly Cloudy with Light Thunderstorms 76 24.4 73 22.8 91 91 SSW 5 7 29.88 1012 9 14.484096 0.65 16.51
4:42 pm 16:42 Mostly Cloudy 79 26.1 74 23.3 85 85 Calm 29.91 1013 10 16.09344 0.65 16.51
4:52 pm 16:52 Mostly Cloudy 78 25.6 71 21.7 79 79 Calm 29.88 1012 10 16.09344 0.65 16.51
5:52 pm 17:52 Partly Cloudy 81 27.2 73 22.8 77 77 Calm 29.85 1011 10 16.09344 0 0
6:52 pm 18:52 Partly Cloudy 84 28.9 72 22.2 67 67 Calm 29.88 1012 10 16.09344 0 0
7:52 pm 19:52 Mostly Sunny 84 28.9 75 23.9 74 74 Calm 29.88 1012 10 16.09344 0 0
8:35 pm 20:35 Partly Cloudy with Nearby Thunderstorms 84 28.9 75 23.9 74 74 Calm 29.91 1013 10 16.09344 0 0
8:52 pm 20:52 Mostly Clear 83 28.3 77 25 82 82 ESE 3 6 29.91 1013 10 16.09344 0 0
9:52 pm 21:52 Mostly Clear 81 27.2 76 24.4 85 85 SSE 6 9 29.94 1014 10 16.09344 0 0
10:52 pm 22:52 Mostly Cloudy 79 26.1 75 23.9 88 88 S 8 13 29.94 1014 10 16.09344 0 0
11:52 pm 23:52 Mostly Cloudy 77 25 74 23.3 90 90 SSW 6 9 29.94 1014 10 16.09344 0 0

Powered by AerisWeather